• In France
  • List of Countries
  • For 7 days
  • Water Temperature
  • Satellite Maps
  • Weather Map
  • Weather Widgets
  • user-avatar
    Login

    Hourly Weather Boma

    Today, 18 November, Saturday

    Time Temperature Precipitation Wind Pressure Humidity
    00:00 +21°C° 0 mm 0 mps 699 mmHg 83%
    01:00 +21°C° 0 mm 0 mps 699 mmHg 80%
    02:00 +21°C° 0.1 mm 0 mps 699 mmHg 83%
    03:00 +20°C° 0.1 mm 0 mps 699 mmHg 86%
    04:00 +20°C° 0.1 mm 0 mps 699 mmHg 89%
    05:00 +20°C° 0 mm 0 mps 699 mmHg 89%
    06:00 +21°C° 0 mm 0 mps 699 mmHg 89%
    07:00 +21°C° 0 mm 0 mps 700 mmHg 88%
    08:00 +23°C° 0 mm 0 mps 700 mmHg 79%
    09:00 +26°C° 0 mm 0 mps 700 mmHg 69%
    10:00 +30°C° 0 mm 1 mps 701 mmHg 59%
    11:00 +30°C° 0 mm 0 mps 700 mmHg 52%
    12:00 +32°C° 0 mm 0 mps 700 mmHg 44%
    13:00 +34°C° 0 mm 0 mps 699 mmHg 36%
    14:00 +33°C° 0 mm 0 mps 699 mmHg 37%
    15:00 +34°C° 0 mm 1 mps 698 mmHg 39%
    16:00 +33°C° 0 mm 1 mps 697 mmHg 40%
    17:00 +31°C° 0 mm 1 mps 697 mmHg 47%
    18:00 +29°C° 0 mm 1 mps 697 mmHg 54%
    19:00 +27°C° 0 mm 1 mps 698 mmHg 61%
    20:00 +27°C° 0.3 mm 1 mps 698 mmHg 67%
    21:00 +26°C° 0.3 mm 1 mps 699 mmHg 72%
    22:00 +25°C° 0.3 mm 1 mps 699 mmHg 78%
    23:00 +24°C° 1.4 mm 1 mps 699 mmHg 84%

    Tomorrow, 19 November, Sunday

    Time Temperature Precipitation Wind Pressure Humidity
    00:00 +24°C° 1.4 mm 1 mps 699 mmHg 89%
    01:00 +23°C° 1.4 mm 1 mps 699 mmHg 95%
    02:00 +23°C° 1.6 mm 1 mps 699 mmHg 95%
    03:00 +23°C° 1.6 mm 1 mps 699 mmHg 95%
    04:00 +23°C° 1.6 mm 1 mps 699 mmHg 95%
    05:00 +23°C° 0.3 mm 1 mps 699 mmHg 95%
    06:00 +23°C° 0.3 mm 1 mps 699 mmHg 96%
    07:00 +23°C° 0.3 mm 1 mps 700 mmHg 96%
    08:00 +24°C° 0.4 mm 1 mps 700 mmHg 90%
    09:00 +26°C° 0.4 mm 1 mps 700 mmHg 85%
    10:00 +27°C° 0.4 mm 1 mps 701 mmHg 79%
    11:00 +28°C° 0.8 mm 1 mps 700 mmHg 75%
    12:00 +28°C° 0.8 mm 1 mps 700 mmHg 70%
    13:00 +29°C° 0.8 mm 1 mps 700 mmHg 66%
    14:00 +29°C° 0.5 mm 1 mps 699 mmHg 69%
    15:00 +28°C° 0.5 mm 1 mps 699 mmHg 71%
    16:00 +28°C° 0.5 mm 1 mps 698 mmHg 74%
    17:00 +26°C° 0.5 mm 1 mps 698 mmHg 81%
    18:00 +25°C° 0.5 mm 1 mps 699 mmHg 87%
    19:00 +23°C° 0.5 mm 1 mps 699 mmHg 93%
    20:00 +23°C° 0 mm 1 mps 700 mmHg 94%
    21:00 +23°C° 0 mm 1 mps 700 mmHg 95%
    22:00 +23°C° 0 mm 1 mps 700 mmHg 95%
    23:00 +23°C° 0 mm 1 mps 700 mmHg 95%

    Day after tomorrow, 20 November, Monday

    Time Temperature Precipitation Wind Pressure Humidity
    00:00 +23°C° 0 mm 1 mps 700 mmHg 96%
    01:00 +20°C° 0 mm 0 mps 700 mmHg 96%
    02:00 +20°C° 0 mm 0 mps 699 mmHg 97%
    03:00 +20°C° 0 mm 0 mps 699 mmHg 97%
    04:00 +20°C° 0 mm 0 mps 699 mmHg 98%
    05:00 +20°C° 0 mm 0 mps 699 mmHg 97%
    06:00 +20°C° 0 mm 0 mps 700 mmHg 96%
    07:00 +20°C° 0 mm 0 mps 700 mmHg 95%
    08:00 +23°C° 0 mm 0 mps 701 mmHg 84%
    09:00 +25°C° 0 mm 0 mps 701 mmHg 72%
    10:00 +28°C° 0 mm 0 mps 702 mmHg 61%
    11:00 +30°C° 0 mm 0 mps 701 mmHg 55%
    12:00 +32°C° 0 mm 0 mps 701 mmHg 48%
    13:00 +34°C° 0 mm 0 mps 700 mmHg 42%
    14:00 +32°C° 0 mm 0 mps 699 mmHg 45%
    15:00 +31°C° 0 mm 0 mps 699 mmHg 48%
    16:00 +30°C° 0 mm 0 mps 698 mmHg 51%
    17:00 +28°C° 0.3 mm 0 mps 698 mmHg 60%
    18:00 +26°C° 0.3 mm 0 mps 698 mmHg 68%
    19:00 +26°C° 0.3 mm 1 mps 699 mmHg 76%
    20:00 +25°C° 1.9 mm 1 mps 699 mmHg 82%
    21:00 +24°C° 1.9 mm 1 mps 700 mmHg 87%
    22:00 +24°C° 1.9 mm 1 mps 700 mmHg 92%
    23:00 +24°C° 0.1 mm 1 mps 700 mmHg 92%

    21 November, Tuesday

    Time Temperature Precipitation Wind Pressure Humidity
    00:00 +24°C° 0.1 mm 1 mps 700 mmHg 93%
    01:00 +23°C° 0.1 mm 1 mps 699 mmHg 93%
    02:00 +21°C° 0 mm 0 mps 699 mmHg 94%
    03:00 +21°C° 0 mm 0 mps 699 mmHg 94%
    04:00 +21°C° 0 mm 0 mps 698 mmHg 95%
    05:00 +21°C° 0 mm 0 mps 699 mmHg 95%
    06:00 +21°C° 0 mm 0 mps 699 mmHg 94%
    07:00 +21°C° 0 mm 0 mps 700 mmHg 93%
    08:00 +25°C° 0 mm 1 mps 700 mmHg 85%
    09:00 +27°C° 0 mm 1 mps 701 mmHg 76%
    10:00 +29°C° 0 mm 1 mps 701 mmHg 67%
    11:00 +31°C° 0 mm 1 mps 700 mmHg 57%
    12:00 +33°C° 0 mm 1 mps 700 mmHg 47%
    13:00 +35°C° 0 mm 1 mps 699 mmHg 38%
    14:00 +34°C° 0 mm 1 mps 699 mmHg 38%
    15:00 +34°C° 0 mm 1 mps 698 mmHg 37%
    16:00 +32°C° 0 mm 0 mps 697 mmHg 37%
    17:00 +29°C° 0 mm 0 mps 697 mmHg 45%
    18:00 +27°C° 0 mm 0 mps 698 mmHg 54%
    19:00 +24°C° 0 mm 0 mps 698 mmHg 62%
    20:00 +23°C° 0 mm 0 mps 698 mmHg 65%
    21:00 +23°C° 0 mm 0 mps 699 mmHg 68%
    22:00 +22°C° 0 mm 0 mps 699 mmHg 72%
    23:00 +24°C° 0 mm 1 mps 699 mmHg 75%

    22 November, Wednesday

    Time Temperature Precipitation Wind Pressure Humidity
    00:00 +24°C° 0 mm 1 mps 699 mmHg 79%
    01:00 +24°C° 0 mm 1 mps 698 mmHg 83%
    02:00 +23°C° 0.3 mm 1 mps 698 mmHg 88%
    03:00 +23°C° 0.3 mm 1 mps 698 mmHg 92%
    04:00 +22°C° 0.3 mm 1 mps 698 mmHg 96%
    05:00 +23°C° 0 mm 1 mps 699 mmHg 95%
    06:00 +23°C° 0 mm 1 mps 700 mmHg 93%
    07:00 +23°C° 0 mm 1 mps 700 mmHg 92%
    08:00 +25°C° 0 mm 1 mps 700 mmHg 85%
    09:00 +26°C° 0 mm 1 mps 701 mmHg 78%
    10:00 +27°C° 0 mm 1 mps 701 mmHg 72%
    11:00 +29°C° 0 mm 1 mps 700 mmHg 64%
    12:00 +31°C° 0 mm 1 mps 699 mmHg 56%
    13:00 +33°C° 0 mm 1 mps 699 mmHg 48%
    14:00 +32°C° 0 mm 1 mps 698 mmHg 48%
    15:00 +32°C° 0 mm 1 mps 698 mmHg 48%
    16:00 +32°C° 0 mm 1 mps 697 mmHg 48%
    17:00 +30°C° 0.1 mm 1 mps 697 mmHg 59%
    18:00 +27°C° 0.1 mm 1 mps 698 mmHg 71%
    19:00 +25°C° 0.1 mm 2 mps 698 mmHg 82%
    20:00 +25°C° 0.1 mm 1 mps 699 mmHg 85%
    21:00 +24°C° 0.1 mm 1 mps 699 mmHg 89%
    22:00 +23°C° 0.1 mm 1 mps 699 mmHg 92%
    23:00 +23°C° 0.7 mm 1 mps 699 mmHg 94%

    23 November, Thursday

    Time Temperature Precipitation Wind Pressure Humidity
    00:00 +23°C° 0.7 mm 1 mps 699 mmHg 95%
    01:00 +22°C° 0.7 mm 1 mps 699 mmHg 96%
    02:00 +22°C° 0 mm 1 mps 699 mmHg 96%
    03:00 +22°C° 0 mm 1 mps 699 mmHg 96%
    04:00 +22°C° 0 mm 1 mps 699 mmHg 96%
    05:00 +23°C° 0 mm 1 mps 699 mmHg 95%
    06:00 +23°C° 0 mm 1 mps 700 mmHg 94%
    07:00 +23°C° 0 mm 1 mps 700 mmHg 94%
    08:00 +25°C° 0 mm 1 mps 701 mmHg 85%
    09:00 +26°C° 0 mm 1 mps 701 mmHg 77%
    10:00 +28°C° 0 mm 1 mps 701 mmHg 68%
    11:00 +30°C° 0 mm 1 mps 701 mmHg 58%
    12:00 +32°C° 0 mm 1 mps 700 mmHg 48%
    13:00 +34°C° 0 mm 1 mps 699 mmHg 38%
    14:00 +34°C° 0 mm 1 mps 699 mmHg 37%
    15:00 +33°C° 0 mm 1 mps 698 mmHg 36%
    16:00 +33°C° 0 mm 1 mps 698 mmHg 34%
    17:00 +31°C° 0 mm 1 mps 698 mmHg 44%
    18:00 +28°C° 0 mm 1 mps 698 mmHg 54%
    19:00 +25°C° 0 mm 1 mps 699 mmHg 63%
    20:00 +25°C° 0 mm 1 mps 699 mmHg 68%
    21:00 +24°C° 0 mm 1 mps 699 mmHg 73%
    22:00 +21°C° 0 mm 0 mps 700 mmHg 78%
    23:00 +23°C° 0 mm 1 mps 700 mmHg 82%
    Show more